Home   Weather   Fort Collins   Past weeks
Flag for USA

Past Weather in Fort Collins, Colorado, USA — Yesterday and Last 2 Weeks

Now
58 °F

Clear.


Feels Like: 57 °F
Forecast: 88 / 59 °F
Wind: 7 mph from North

Location: Fort Collins-Loveland Municipal Airport

Current Time: Jul 23, 2019 at 6:08:24 am

Latest Report: Jul 23, 2019 at 4:56 am


Visibility: 10 mi

Pressure: 30.16 "Hg (25.17 "Hg at 1522m altitude)

Humidity: 93%

Dew Point: 56 °F

Location of Fort CollinsLocation

Past Weather in Fort Collins — Graph

°F

Fort Collins Temperature Yesterday

Maximum temperature yesterday: 81 °F (at 1:56 pm)
Minimum temperature yesterday: 63 °F (at 3:19 am)
Average temperature yesterday: 70 °F

High & Low Weather Summary for the Past Weeks

 TemperatureHumidityPressure
High101 °F (Jul 18, 3:56 pm)94% (Jul 22, 3:19 am)30.38 "Hg (Jul 22, 3:19 am)
Low57 °F (Jul 19, 5:56 am)10% (Jul 18, 3:56 pm)29.63 "Hg (Jul 19, 6:56 pm)
Average76 °F52%29.91 "Hg
* Reported Jul 8 12:56 pm — Jul 23 4:56 am, Fort Collins. Weather by CustomWeather, © 2019

Note: Actual official high and low records may vary slightly from our data, if they occured in-between our weather recording intervals... More about our weather records

Advertising

Fort Collins Weather History for the Previous 24 Hours

Scroll right to see more
 ConditionsComfort  
Time TempWeatherWind HumidityBarometerVisibility
4:56 am
Tue, Jul 23
58 °FClear.7 mph93%30.16 "Hg10 mi
3:56 am58 °FClear.7 mph93%30.16 "Hg9 mi
2:56 am61 °FClear.6 mph90%30.15 "Hg10 mi
1:56 am61 °FClear.5 mph90%30.16 "Hg10 mi
12:56 am64 °FClear.6 mph78%30.17 "Hg10 mi
11:56 pm
Mon, Jul 22
65 °FClear.5 mph78%30.17 "Hg10 mi
10:56 pm68 °FClear.6 mph68%30.17 "Hg10 mi
9:56 pm71 °FClear.8 mph61%30.16 "Hg10 mi
8:56 pm74 °FClear.3 mph56%30.14 "Hg10 mi
7:56 pm76 °FSunny.3 mph54%30.14 "Hg10 mi
6:56 pm81 °FSunny.5 mph42%30.12 "Hg10 mi
5:56 pm78 °FSunny.6 mph40%30.12 "Hg10 mi
4:56 pm76 °FPassing clouds.8 mph47%30.13 "Hg10 mi
3:56 pm78 °FPartly sunny.17 mph52%30.18 "Hg10 mi
2:56 pm81 °FOvercast.6 mph49%30.14 "Hg10 mi
1:56 pm81 °FPassing clouds.7 mph47%30.14 "Hg10 mi
12:56 pm77 °FOvercast.8 mph52%30.16 "Hg10 mi
12:16 pm73 °FOvercast.No wind65%30.36 "Hg10 mi
11:56 am73 °FMostly cloudy.No wind64%30.20 "Hg10 mi
11:21 am73 °FMore clouds than sun.No wind65%30.38 "Hg10 mi
10:56 am71 °FMostly cloudy.3 mph68%30.21 "Hg10 mi
10:26 am70 °FPartly sunny.No wind73%30.38 "Hg10 mi
10:03 am70 °FScattered clouds.3 mph73%30.38 "Hg10 mi
9:56 am69 °FPartly sunny.No wind73%30.22 "Hg10 mi
8:56 am66 °FOvercast.3 mph81%30.23 "Hg10 mi
7:56 am65 °FOvercast.3 mph85%30.23 "Hg10 mi
6:56 am64 °FMostly cloudy.6 mph87%30.22 "Hg10 mi
Weather by CustomWeather, © 2019

See weather overview